Meteo pe oră la Dabrowskie

Astăzi, 12 Aprilie, Luni

Timp Temperatura Precipitaţii Vânt Presiune Umiditate
00:00 +10°C° 0 mm 6 m/s 752 mmHg 62%
01:00 +10°C° 0 mm 5 m/s 752 mmHg 63%
02:00 +9°C° 0 mm 5 m/s 752 mmHg 64%
03:00 +9°C° 0 mm 5 m/s 752 mmHg 64%
04:00 +8°C° 0 mm 5 m/s 752 mmHg 65%
05:00 +9°C° 0 mm 5 m/s 752 mmHg 65%
06:00 +9°C° 0 mm 5 m/s 752 mmHg 66%
07:00 +9°C° 0 mm 5 m/s 752 mmHg 66%
08:00 +9°C° 0 mm 5 m/s 752 mmHg 66%
09:00 +9°C° 0 mm 5 m/s 752 mmHg 65%
10:00 +10°C° 0 mm 5 m/s 752 mmHg 65%
11:00 +11°C° 0 mm 4 m/s 752 mmHg 65%
12:00 +12°C° 0 mm 4 m/s 752 mmHg 65%
13:00 +13°C° 0 mm 4 m/s 752 mmHg 65%
14:00 +12°C° 0.1 mm 3 m/s 751 mmHg 69%
15:00 +12°C° 0.1 mm 3 m/s 751 mmHg 72%
16:00 +12°C° 0.1 mm 3 m/s 751 mmHg 75%
17:00 +11°C° 0.3 mm 3 m/s 751 mmHg 80%
18:00 +10°C° 0.3 mm 3 m/s 751 mmHg 84%
19:00 +9°C° 0.3 mm 3 m/s 751 mmHg 89%
20:00 +7°C° 0.2 mm 4 m/s 752 mmHg 90%
21:00 +5°C° 0.2 mm 5 m/s 752 mmHg 91%
22:00 +3°C° 0.2 mm 6 m/s 752 mmHg 92%
23:00 +2°C° 0.2 mm 6 m/s 753 mmHg 92%

Mâine, 13 Aprilie, Marţi

Timp Temperatura Precipitaţii Vânt Presiune Umiditate
00:00 +2°C° 0.2 mm 6 m/s 753 mmHg 91%
01:00 +1°C° 0.2 mm 5 m/s 754 mmHg 91%
02:00 +1°C° 0.1 mm 5 m/s 754 mmHg 90%
03:00 +1°C° 0.1 mm 4 m/s 754 mmHg 88%
04:00 +1°C° 0.1 mm 4 m/s 754 mmHg 87%
05:00 +3°C° 0 mm 4 m/s 755 mmHg 86%
06:00 +3°C° 0 mm 4 m/s 755 mmHg 84%
07:00 +3°C° 0 mm 4 m/s 755 mmHg 83%
08:00 +4°C° 0 mm 4 m/s 755 mmHg 76%
09:00 +4°C° 0 mm 4 m/s 756 mmHg 69%
10:00 +5°C° 0 mm 5 m/s 756 mmHg 62%
11:00 +6°C° 0 mm 5 m/s 756 mmHg 57%
12:00 +7°C° 0 mm 4 m/s 756 mmHg 52%
13:00 +7°C° 0 mm 4 m/s 756 mmHg 47%
14:00 +7°C° 0 mm 5 m/s 756 mmHg 47%
15:00 +7°C° 0 mm 5 m/s 755 mmHg 48%
16:00 +7°C° 0 mm 5 m/s 755 mmHg 48%
17:00 +6°C° 0 mm 5 m/s 755 mmHg 51%
18:00 +5°C° 0 mm 5 m/s 756 mmHg 53%
19:00 +3°C° 0 mm 5 m/s 756 mmHg 55%
20:00 +4°C° 0 mm 4 m/s 756 mmHg 56%
21:00 +3°C° 0 mm 4 m/s 756 mmHg 58%
22:00 +3°C° 0 mm 4 m/s 755 mmHg 59%
23:00 +1°C° 0 mm 4 m/s 755 mmHg 62%

Poimâine, 14 Aprilie, Miercuri

Timp Temperatura Precipitaţii Vânt Presiune Umiditate
00:00 +1°C° 0 mm 4 m/s 755 mmHg 66%
01:00 +1°C° 0 mm 4 m/s 755 mmHg 70%
02:00 +1°C° 0 mm 4 m/s 755 mmHg 73%
03:00 +1°C° 0 mm 4 m/s 754 mmHg 76%
04:00 0°C° 0 mm 4 m/s 754 mmHg 79%
05:00 +1°C° 0 mm 5 m/s 754 mmHg 77%
06:00 +1°C° 0 mm 5 m/s 754 mmHg 76%
07:00 +1°C° 0 mm 5 m/s 754 mmHg 75%
08:00 +2°C° 0.1 mm 5 m/s 754 mmHg 71%
09:00 +3°C° 0.1 mm 6 m/s 754 mmHg 66%
10:00 +4°C° 0.1 mm 6 m/s 754 mmHg 62%
11:00 +4°C° 0 mm 6 m/s 754 mmHg 61%
12:00 +4°C° 0 mm 7 m/s 753 mmHg 60%
13:00 +5°C° 0 mm 7 m/s 753 mmHg 59%
14:00 +5°C° 0 mm 7 m/s 753 mmHg 63%
15:00 +4°C° 0 mm 7 m/s 753 mmHg 67%
16:00 +4°C° 0 mm 7 m/s 753 mmHg 71%
17:00 +3°C° 0.1 mm 7 m/s 753 mmHg 75%
18:00 +3°C° 0.1 mm 7 m/s 753 mmHg 79%
19:00 +2°C° 0.1 mm 7 m/s 753 mmHg 83%
20:00 0°C° 0.3 mm 7 m/s 753 mmHg 87%
21:00 0°C° 0.3 mm 7 m/s 753 mmHg 91%
22:00 0°C° 0.3 mm 7 m/s 753 mmHg 95%
23:00 +1°C° 0.6 mm 6 m/s 752 mmHg 96%

15 Aprilie, Joi

Timp Temperatura Precipitaţii Vânt Presiune Umiditate
00:00 -1°C° 0.6 mm 6 m/s 752 mmHg 96%
01:00 -1°C° 0.6 mm 6 m/s 752 mmHg 96%
02:00 -1°C° 0.2 mm 6 m/s 752 mmHg 96%
03:00 -1°C° 0.2 mm 6 m/s 752 mmHg 96%
04:00 -1°C° 0.2 mm 6 m/s 752 mmHg 96%
05:00 -1°C° 0 mm 6 m/s 752 mmHg 96%
06:00 -1°C° 0 mm 6 m/s 753 mmHg 96%
07:00 -1°C° 0 mm 6 m/s 753 mmHg 96%
08:00 +1°C° 0.1 mm 6 m/s 753 mmHg 94%
09:00 +1°C° 0.1 mm 6 m/s 753 mmHg 92%
10:00 +1°C° 0.1 mm 6 m/s 754 mmHg 90%
11:00 +1°C° 0 mm 6 m/s 754 mmHg 88%
12:00 +1°C° 0 mm 6 m/s 754 mmHg 85%
13:00 +2°C° 0 mm 6 m/s 754 mmHg 82%
14:00 +2°C° 0 mm 5 m/s 754 mmHg 83%
15:00 +2°C° 0 mm 5 m/s 754 mmHg 84%
16:00 +2°C° 0 mm 5 m/s 754 mmHg 85%
17:00 +2°C° 0 mm 5 m/s 754 mmHg 87%
18:00 +2°C° 0 mm 5 m/s 755 mmHg 89%
19:00 +2°C° 0 mm 5 m/s 755 mmHg 91%
20:00 +1°C° 0 mm 5 m/s 755 mmHg 92%
21:00 +1°C° 0 mm 5 m/s 755 mmHg 93%
22:00 +1°C° 0 mm 6 m/s 755 mmHg 94%
23:00 +1°C° 0.1 mm 6 m/s 754 mmHg 95%

16 Aprilie, Vineri

Timp Temperatura Precipitaţii Vânt Presiune Umiditate
00:00 +1°C° 0.1 mm 6 m/s 754 mmHg 95%
01:00 +1°C° 0.1 mm 6 m/s 754 mmHg 96%
02:00 +1°C° 0.2 mm 6 m/s 754 mmHg 96%
03:00 +1°C° 0.2 mm 6 m/s 754 mmHg 96%
04:00 -1°C° 0.2 mm 6 m/s 754 mmHg 96%
05:00 +1°C° 0.8 mm 6 m/s 754 mmHg 95%
06:00 +1°C° 0.8 mm 5 m/s 755 mmHg 95%
07:00 +1°C° 0.8 mm 5 m/s 755 mmHg 94%
08:00 +1°C° 0.2 mm 5 m/s 755 mmHg 93%
09:00 +2°C° 0.2 mm 5 m/s 755 mmHg 93%
10:00 +2°C° 0.2 mm 5 m/s 756 mmHg 92%
11:00 +2°C° 0.6 mm 5 m/s 756 mmHg 92%
12:00 +3°C° 0.6 mm 5 m/s 756 mmHg 92%
13:00 +3°C° 0.6 mm 5 m/s 757 mmHg 92%
14:00 +3°C° 0 mm 5 m/s 757 mmHg 90%
15:00 +5°C° 0 mm 5 m/s 757 mmHg 89%
16:00 +5°C° 0 mm 5 m/s 758 mmHg 88%
17:00 +5°C° 0 mm 5 m/s 758 mmHg 88%
18:00 +5°C° 0 mm 5 m/s 758 mmHg 88%
19:00 +3°C° 0 mm 5 m/s 759 mmHg 88%
20:00 +3°C° 0 mm 5 m/s 759 mmHg 87%
21:00 +3°C° 0 mm 5 m/s 759 mmHg 85%
22:00 +4°C° 0 mm 4 m/s 760 mmHg 83%
23:00 +4°C° 0 mm 4 m/s 760 mmHg 83%

17 Aprilie, Sâmbătă

Timp Temperatura Precipitaţii Vânt Presiune Umiditate
00:00 +4°C° 0 mm 4 m/s 760 mmHg 83%
01:00 +4°C° 0 mm 4 m/s 760 mmHg 83%
02:00 +4°C° 0 mm 4 m/s 760 mmHg 84%
03:00 +3°C° 0 mm 4 m/s 760 mmHg 84%
04:00 +1°C° 0 mm 4 m/s 761 mmHg 85%
05:00 +3°C° 0 mm 4 m/s 761 mmHg 81%
06:00 +2°C° 0 mm 5 m/s 761 mmHg 77%
07:00 +3°C° 0 mm 5 m/s 762 mmHg 73%
08:00 +5°C° 0 mm 5 m/s 762 mmHg 66%
09:00 +7°C° 0 mm 5 m/s 762 mmHg 60%
10:00 +9°C° 0 mm 5 m/s 762 mmHg 53%
11:00 +10°C° 0 mm 5 m/s 762 mmHg 49%
12:00 +12°C° 0 mm 5 m/s 762 mmHg 45%
13:00 +13°C° 0 mm 5 m/s 762 mmHg 40%
14:00 +12°C° 0 mm 5 m/s 761 mmHg 42%
15:00 +12°C° 0 mm 5 m/s 761 mmHg 43%
16:00 +12°C° 0 mm 4 m/s 761 mmHg 44%
17:00 +11°C° 0 mm 4 m/s 761 mmHg 51%
18:00 +9°C° 0 mm 3 m/s 762 mmHg 58%
19:00 +7°C° 0 mm 3 m/s 762 mmHg 66%
20:00 +5°C° 0 mm 3 m/s 762 mmHg 68%
21:00 +4°C° 0 mm 3 m/s 762 mmHg 70%
22:00 +4°C° 0 mm 3 m/s 763 mmHg 73%
23:00 +3°C° 0 mm 3 m/s 763 mmHg 74%
Arată mai mult

Formular de consimțământ

Meteoprog și furnizorii noștri de servicii pot stoca și accesa date personale, precum cookies, identificatori de dispozitiv sau alte tehnologii similare pe dispozitivul dumneavoastră și procesa astfel de date pentru a personaliza conținutul și reclamele, dar și pentru a oferi caracteristici de social media și pentru a analiza traficul.

  • Stocarea și/sau accesarea informațiilor pe dispozitivul dumneavoastră

    Cookies, identificatori de dispozitiv sau alte informații pot fi stocate sau accesate pe dispozitiv în scopurile indicate mai sus.

  • Reclame și conținut personalizat, evaluarea reclamelor și a conținutului, informații despre audiențe și dezvoltarea produselor

    Reclamele și conținutul pot fi personalizate pe baza unui profil. Pot fi adăugate date suplimentare pentru a personaliza mai bine reclamele și conținutul. Performanța reclamelor și conținutului poate fi măsurată. Pot fi obținute informații despre utilizatorii care au văzut reclamele și conținutul. Aceste date pot fi utilizate pentru a dezvolta sau îmbunătăți experiența utilizatorilor, sistemele și software-ul.

Dând clic pe ‘Sunt de acord’, permiteți utilizarea cookie-urilor menționate, a identificatorilor de dispozitiv, balizelor web sau altor tehnologii similare. Setările pot fi modificate din browser-ul dispozitivului dumneavoastră.

În anumite scopuri, interesele legitime pot prima asupra consimțământului. Puteți citi mai multe informații în acest sens în Politica privind Confidențialitatea Datelor și Cookie.